Skip to main content.
NOAA NWS Hourly Roundups by Site

NOAA NWS Hourly Roundups by Site

Regional Weather Roundup for Omaha, NE

To Select Another Site Choose from List

Select Site:  

000
ASUS43 KOAX 212210
RWRNE

WEATHER ROUNDUP FOR NEBRASKA
NATIONAL WEATHER SERVICE OMAHA NE
500 PM CDT TUE SEP 21 2021

NOTES: SATELLITE DATA IS BEING USED TO AUGMENT CLOUD COVER ABOVE
       12000 FEET.
       "FAIR" INDICATES FEW OR NO CLOUDS BELOW 12,000 FEET WITH NO
       SIGNIFICANT WEATHER AND/OR OBSTRUCTIONS TO VISIBILITY.


NEZ001>004-019>022-054>056-212300-
NEBRASKA PANHANDLE

CITY           SKY/WX    TMP DP  RH WIND       PRES   REMARKS
SCOTTSBLUFF    SUNNY     66  25  21 NW9G17    30.42F
ALLIANCE       SUNNY     65  29  25 W5        30.40F
CHADRON        SUNNY     67  31  26 SW10      30.39F
GORDON         MOSUNNY   64  32  30 W6        30.40F
KIMBALL        SUNNY     64  23  20 W8        30.45S
SIDNEY         SUNNY     66  26  22 CALM      30.42F
$$

NEZ057>060-069>072-079>082-212300-
SOUTHWEST NEBRASKA

CITY           SKY/WX    TMP DP  RH WIND       PRES   REMARKS
NORTH PLATTE   MOSUNNY   70  38  31 N6        30.38F
IMPERIAL       MOSUNNY   70  33  25 NW8G18    30.41F
LEXINGTON      SUNNY     67  40  37 N8        30.37S
MCCOOK         MOSUNNY   72  33  24 NW17G23   30.38F
OGALLALA       PTSUNNY   68  32  25 N7        30.41S
$$

NEZ005>010-023>029-035>040-094-212300-
NORTH CENTRAL NEBRASKA

CITY           SKY/WX    TMP DP  RH WIND       PRES   REMARKS
VALENTINE      MOSUNNY   69  36  29 N7        30.37F
AINSWORTH      MOSUNNY   67  35  30 N8        30.38S
BROKEN BOW     PTSUNNY   70  38  31 N9G20     30.36F
O`NEILL        MOSUNNY   68  36  30 NW14      30.35F
ORD            MOSUNNY   69  42  37 N10       30.34F
THEDFORD       MOSUNNY   67  37  33 NW8       30.39S
$$

NEZ041-046>049-061>064-073>077-083>087-212300-
SOUTH CENTRAL NEBRASKA

CITY           SKY/WX    TMP DP  RH WIND       PRES   REMARKS
GRAND ISLAND   PTSUNNY   71  40  32 N7        30.34F
AURORA         MOSUNNY   71  41  33 NW9G16    30.34S
HASTINGS       SUNNY     70  40  33 VRB7      30.35F
HEBRON         MOSUNNY   73  37  26 N10       30.32S
HOLDREGE       MOSUNNY   66  39  37 NW5       30.37S
KEARNEY        MOSUNNY   67  42  40 NW8       30.36S
YORK           MOSUNNY   68  43  40 N10G17    30.32S
$$

NEZ011>018-030>034-042>045-212300-
NORTHEAST NEBRASKA

CITY           SKY/WX    TMP DP  RH WIND       PRES   REMARKS
NORFOLK        MOSUNNY   71  42  35 NW12G21   30.32S
ALBION         PTSUNNY   67  42  40 N9        30.34S
BLAIR          SUNNY     69  38  32 N12G24    30.29S
COLUMBUS       MOSUNNY   67  44  43 NW14      30.33S
FREMONT        SUNNY     72  40  32 N16G23    30.31R
TEKAMAH        SUNNY     72  39  30 N15G26    30.29R
WAYNE          SUNNY     67  39  35 N13G18    30.31S
$$

NEZ050>053-065>068-078-088>093-212300-
SOUTHEAST NEBRASKA

CITY           SKY/WX    TMP DP  RH WIND       PRES   REMARKS
LINCOLN        MOSUNNY   73  40  30 N14       30.30S
OMAHA EPPLEY   MOSUNNY   73  38  27 NW21G32   30.27S
BEATRICE       MOSUNNY   72  43  35 N9        30.30S
FALLS CITY     MOSUNNY   72  41  32 N16G26    30.26R
NEBRASKA CITY  MOSUNNY   72  33  23 NW14G21   30.28S
PLATTSMOUTH    MOSUNNY   72  40  31 N12G21    30.28S
$$

NEZ044-045-051>053-067-212300-
OMAHA AREA

CITY           SKY/WX    TMP DP  RH WIND       PRES   REMARKS
OMAHA EPPLEY   MOSUNNY   73  38  27 NW21G32   30.27S
BLAIR          SUNNY     69  38  32 N12G24    30.29S
FREMONT        SUNNY     72  40  32 N16G23    30.31R
MILLARD        MOSUNNY   73  39  29 NW13G20   30.29R
OFFUTT AFB     SUNNY     71  38  29 N13G20    30.29S
PLATTSMOUTH    MOSUNNY   72  40  31 N12G21    30.28S
WAHOO          MOSUNNY   70  42  35 N13G20    30.30S
$$


 

View Past Reports for Omaha, NE.

Products Courtesy of NOAA-NWS
NWS Information Parsing Script by Ken True at Saratoga Weather - Script by SE Lincoln Weather.